TimeMST,TemperatureF,Dew PointF,Humidity,Sea Level PressureIn,VisibilityMPH,Wind Direction,Wind SpeedMPH,Gust SpeedMPH,PrecipitationIn,Events,Conditions,WindDirDegrees,DateUTC
1:50 AM,63,51,57,29.99,2,SSE,4.5,,,,Partly Cloudy,150,2013-03-06 08:50:00
4:50 AM,64,54,63,29.96,2,South,2.2,,,,Mostly Cloudy,180,2013-03-06 11:50:00
5:50 AM,59.0,37.4,45,29.98,10.0,South,6.9,-,N/A,,Scattered Clouds,180,2013-03-06 12:50:00
6:40 AM,60.8,37.4,42,29.99,10.0,South,6.9,-,N/A,,Mostly Cloudy,180,2013-03-06 13:40:00
7:42 AM,62.6,41.0,45,30.08,10.0,South,4.6,-,N/A,,Mostly Cloudy,170,2013-03-06 14:42:00
7:50 AM,63,44,39,30.01,11,SE,2.2,,,,Mostly Cloudy,140,2013-03-06 14:50:00
8:41 AM,66.2,37.4,35,30.03,10.0,SSW,5.8,-,N/A,,Mostly Cloudy,200,2013-03-06 15:41:00
9:42 AM,73.4,35.6,25,30.04,10.0,South,4.6,-,N/A,,Mostly Cloudy,190,2013-03-06 16:42:00
10:50 AM,80,49,23,30.04,0,NE,4.5,,,,Mostly Cloudy,50,2013-03-06 17:50:00
10:52 AM,78.8,44.6,30,30.08,10.0,NNW,6.9,-,N/A,,Mostly Cloudy,330,2013-03-06 17:52:00
11:44 AM,75.2,48.2,38,30.02,10.0,NNW,8.1,-,N/A,,Mostly Cloudy,330,2013-03-06 18:44:00
12:51 PM,75.2,48.2,38,30.00,10.0,NNW,11.5,-,N/A,,Mostly Cloudy,330,2013-03-06 19:51:00
1:40 PM,75.2,51.8,44,30.03,10.0,North,11.5,-,N/A,,Mostly Cloudy,350,2013-03-06 20:40:00
1:50 PM,80,53,29,29.99,19,NE,6.7,,,,Mostly Cloudy,50,2013-03-06 20:50:00
2:40 PM,73.4,53.6,50,29.97,10.0,NNW,9.2,-,N/A,,Overcast,330,2013-03-06 21:40:00
3:41 PM,75.2,48.2,38,29.95,10.0,NNW,9.2,-,N/A,,Overcast,340,2013-03-06 22:41:00
4:40 PM,75.2,46.4,36,29.99,10.0,NW,8.1,-,N/A,,Overcast,320,2013-03-06 23:40:00
5:45 PM,73.4,50.0,44,29.96,10.0,WNW,5.8,-,N/A,,Overcast,290,2013-03-07 00:45:00
6:40 PM,71.6,46.4,41,29.96,10.0,NW,4.6,-,N/A,,Overcast,310,2013-03-07 01:40:00
7:40 PM,69.8,42.8,38,30.03,10.0,South,3.5,-,N/A,,Mostly Cloudy,180,2013-03-07 02:40:00
8:40 PM,69.8,55.4,60,29.99,10.0,South,5.8,-,N/A,,Mostly Cloudy,190,2013-03-07 03:40:00
10:40 PM,66.2,55.4,68,30.03,10.0,SSE,6.9,-,N/A,,Scattered Clouds,160,2013-03-07 05:40:00
10:50 PM,69,61,68,29.96,2,SSE,4.5,,,,Partly Cloudy,150,2013-03-07 05:50:00